EW6470 Weather Reports


Display with metric or nautical units.
time (UTC)temp
F
wind
direction
speed
MPH
gust
MPH
rain 1hr
in
rain 24hr
in
rain mn
in
humidity
%
barometer
mb
20260905090516 57 0 0.0 0.0 0.00 0.00 0.00 76 1014.9
20260905090035 57 0 0.0 1.0 0.00 0.00 0.00 78 1015.0
20260905085516 56 0 0.0 1.0 0.00 0.00 0.00 79 1014.9
20260905085021 56 0 0.0 1.0 0.00 0.00 0.00 82 1015.1
20260905084536 56 0 0.0 1.0 0.00 0.00 0.00 84 1015.1
20260905084020 56 0 0.0 0.0 0.00 0.00 0.00 85 1015.2
20260905083519 57 0 0.0 1.0 0.00 0.00 0.00 86 1015.3
20260905083036 57 0 0.0 1.0 0.00 0.00 0.00 86 1015.3
20260905082516 57 0 0.0 1.0 0.00 0.00 0.00 85 1015.5
20260905082018 57 0 0.0 0.0 0.00 0.00 0.00 84 1015.7
20260905081534 57 0 0.0 0.0 0.00 0.00 0.00 84 1015.8
20260905081019 58 0 0.0 0.0 0.00 0.00 0.00 81 1015.8
20260905080516 58 0 0.0 0.0 0.00 0.00 0.00 80 1015.9
20260905080047 58 0 0.0 0.0 0.00 0.00 0.00 78 1015.9
20260905075516 59 0 0.0 1.0 0.00 0.00 0.00 76 1015.9
20260905075017 59 252 0.0 2.0 0.00 0.00 0.00 75 1015.9
20260905074532 59 0 0.0 2.0 0.00 0.00 0.00 74 1015.9
20260905074020 59 275 0.0 1.0 0.00 0.00 0.00 73 1015.7
20260905073518 59 0 0.0 2.0 0.00 0.00 0.00 73 1015.8
20260905073035 59 0 0.0 2.0 0.00 0.00 0.00 72 1015.6
20260905072519 59 0 0.0 2.0 0.00 0.00 0.00 76 1015.6
20260905072016 59 334 0.0 2.0 0.00 0.00 0.00 76 1015.5
20260905071536 58 269 0.0 2.0 0.00 0.00 0.00 78 1015.4
20260905071020 58 0 0.0 2.0 0.00 0.00 0.00 81 1015.3
20260905070517 58 0 0.0 0.0 0.00 0.00 0.00 80 1015.5
20260905070035 58 0 0.0 0.0 0.00 0.00 0.00 79 1015.6
20260905065519 58 0 0.0 0.0 0.00 0.00 0.00 78 1015.7
20260905065018 58 0 0.0 0.0 0.00 0.00 0.00 78 1015.7
20260905064535 58 0 0.0 0.0 0.00 0.00 0.00 77 1015.8
20260905064019 58 0 0.0 0.0 0.00 0.00 0.00 77 1015.8
20260905063519 58 0 0.0 0.0 0.00 0.00 0.00 76 1016.0
20260905063034 58 0 0.0 0.0 0.00 0.00 0.00 76 1015.9
20260905062520 58 0 0.0 0.0 0.00 0.00 0.00 78 1015.8
20260905062018 58 0 0.0 0.0 0.00 0.00 0.00 79 1015.8
20260905061550 58 0 0.0 0.0 0.00 0.00 0.00 80 1016.1
20260905061017 58 0 0.0 0.0 0.00 0.00 0.00 81 1016.0
20260905060518 58 0 0.0 1.0 0.00 0.00 0.00 81 1016.0
20260905060036 58 0 0.0 1.0 0.00 0.00 0.00 81 1016.1
20260905055519 58 0 0.0 1.0 0.00 0.00 0.00 81 1016.0
20260905055020 57 0 0.0 0.0 0.00 0.00 0.00 81 1016.1
20260905054535 57 0 0.0 0.0 0.00 0.00 0.00 80 1016.1
20260905054017 57 0 0.0 1.0 0.00 0.00 0.00 80 1016.1
20260905053516 57 0 0.0 2.0 0.00 0.00 0.00 79 1016.4
20260905053032 56 0 0.0 2.0 0.00 0.00 0.00 78 1016.4
20260905052518 56 24 0.0 2.0 0.00 0.00 0.00 78 1016.4
20260905052016 56 0 0.0 0.0 0.00 0.00 0.00 79 1016.6
20260905051539 55 0 0.0 0.0 0.00 0.00 0.00 80 1016.6
20260905051018 55 0 0.0 1.0 0.00 0.00 0.00 80 1016.8
20260905050520 55 0 0.0 1.0 0.00 0.00 0.00 83 1016.8
20260905050038 55 33 0.0 1.0 0.00 0.00 0.00 84 1017.0
20260905045518 55 34 0.0 1.0 0.00 0.00 0.00 85 1017.0
20260905045017 55 0 0.0 0.0 0.00 0.00 0.00 85 1017.1
20260905044537 56 0 0.0 0.0 0.00 0.00 0.00 84 1017.3
20260905044018 57 0 0.0 0.0 0.00 0.00 0.00 81 1017.4
20260905043518 57 0 0.0 0.0 0.00 0.00 0.00 80 1017.4
20260905043036 58 0 0.0 0.0 0.00 0.00 0.00 79 1017.5
20260905042518 58 0 0.0 0.0 0.00 0.00 0.00 78 1017.3
20260905042018 58 0 0.0 0.0 0.00 0.00 0.00 79 1017.3
20260905041533 59 0 0.0 0.0 0.00 0.00 0.00 83 1017.2
20260905041024 59 0 0.0 0.0 0.00 0.00 0.00 84 1017.2
20260905040520 59 0 0.0 0.0 0.00 0.00 0.00 83 1017.3
20260905040036 60 0 0.0 0.0 0.00 0.00 0.00 81 1017.3
20260905035519 60 0 0.0 0.0 0.00 0.00 0.00 81 1017.5
20260905035023 60 0 0.0 0.0 0.00 0.00 0.00 81 1017.3
20260905034542 60 0 0.0 0.0 0.00 0.00 0.00 81 1017.3
20260905034018 61 0 0.0 0.0 0.00 0.00 0.00 80 1017.3
20260905033516 61 0 0.0 0.0 0.00 0.00 0.00 81 1017.4
20260905033036 61 0 0.0 0.0 0.00 0.00 0.00 80 1017.2
20260905032518 61 0 0.0 0.0 0.00 0.00 0.00 81 1017.2
20260905032017 61 0 0.0 0.0 0.00 0.00 0.00 81 1017.2
20260905031533 61 0 0.0 0.0 0.00 0.00 0.00 82 1017.3
20260905031020 61 0 0.0 1.0 0.00 0.00 0.00 82 1017.3
20260905030520 62 0 0.0 1.0 0.00 0.00 0.00 81 1017.3
20260905030039 62 185 0.0 1.0 0.00 0.00 0.00 81 1017.4
20260905025517 62 0 0.0 0.0 0.00 0.00 0.00 80 1017.2
20260905025019 62 0 0.0 0.0 0.00 0.00 0.00 80 1017.4
20260905024536 63 0 0.0 0.0 0.00 0.00 0.00 79 1017.5
20260905024018 63 0 0.0 0.0 0.00 0.00 0.00 79 1017.5
20260905023518 63 0 0.0 0.0 0.00 0.00 0.00 78 1017.5
20260905023035 63 0 0.0 0.0 0.00 0.00 0.00 79 1017.6
20260905022515 64 0 0.0 0.0 0.00 0.00 0.00 77 1017.6
20260905022020 64 0 0.0 0.0 0.00 0.00 0.00 76 1017.8
20260905021534 64 0 0.0 0.0 0.00 0.00 0.00 75 1017.8
20260905021023 64 0 0.0 0.0 0.00 0.00 0.00 74 1017.9
20260905020523 64 0 0.0 0.0 0.00 0.00 0.00 74 1017.9
20260905020037 64 0 0.0 0.0 0.00 0.00 0.00 74 1018.0
20260905015519 64 0 0.0 0.0 0.00 0.00 0.00 75 1018.0
20260905015019 65 0 0.0 0.0 0.00 0.00 0.00 73 1018.0
20260905014537 65 0 0.0 0.0 0.00 0.00 0.00 71 1018.1
20260905014016 65 0 0.0 0.0 0.00 0.00 0.00 71 1018.0
20260905013518 65 0 0.0 0.0 0.00 0.00 0.00 71 1018.1
20260905013036 65 0 0.0 0.0 0.00 0.00 0.00 68 1018.0
20260905012520 66 0 0.0 0.0 0.00 0.00 0.00 68 1018.1
20260905012019 66 0 0.0 0.0 0.00 0.00 0.00 66 1018.2
20260905011541 66 0 0.0 1.0 0.00 0.00 0.00 67 1018.2
20260905011021 66 0 0.0 1.0 0.00 0.00 0.00 67 1018.3
20260905010521 66 0 0.0 0.0 0.00 0.00 0.00 65 1018.3
20260905010034 66 0 0.0 0.0 0.00 0.00 0.00 68 1018.4
20260905005518 66 0 0.0 1.0 0.00 0.00 0.00 71 1018.4
20260905005017 66 0 0.0 1.0 0.00 0.00 0.00 69 1018.6
20260905004543 65 170 0.0 1.0 0.00 0.00 0.00 68 1018.5
20260905004018 65 0 0.0 0.0 0.00 0.00 0.00 71 1018.5
20260905003519 66 0 0.0 0.0 0.00 0.00 0.00 67 1018.6
20260905003035 66 0 0.0 0.0 0.00 0.00 0.00 68 1018.8
20260905002520 66 0 0.0 0.0 0.00 0.00 0.00 68 1019.1
20260905002020 66 0 0.0 1.0 0.00 0.00 0.00 69 1019.1
20260905001548 66 0 0.0 1.0 0.00 0.00 0.00 68 1019.1
20260905001021 67 284 0.0 1.0 0.00 0.00 0.00 66 1019.1
20260905000519 68 244 0.0 1.0 0.00 0.00 0.00 62 1019.3
20260905000034 68 282 0.0 2.0 0.00 0.00 0.00 63 1019.3
20260904235519 68 284 0.0 2.0 0.00 0.00 0.00 68 1019.2
20260904235022 67 214 0.0 2.0 0.00 0.00 0.00 66 1019.2
20260904234539 66 279 0.0 2.0 0.00 0.00 0.00 67 1019.4
20260904234016 66 268 0.0 2.0 0.00 0.00 0.00 66 1019.2
20260904233518 66 0 0.0 0.0 0.00 0.00 0.00 69 1019.3
20260904233041 65 0 0.0 0.0 0.00 0.00 0.00 65 1019.5
20260904232521 65 0 0.0 1.0 0.00 0.00 0.00 68 1019.4
20260904232022 65 0 0.0 1.0 0.00 0.00 0.00 67 1019.6
20260904231545 65 0 0.0 1.0 0.00 0.00 0.00 65 1019.5
20260904231017 65 0 0.0 1.0 0.00 0.00 0.00 68 1019.5
20260904230518 64 0 0.0 1.0 0.00 0.00 0.00 66 1019.6
20260904230035 64 0 0.0 0.0 0.00 0.00 0.00 69 1019.6
20260904225516 64 0 0.0 0.0 0.00 0.00 0.00 67 1019.5
20260904225015 64 0 0.0 0.0 0.00 0.00 0.00 68 1019.6
20260904224545 63 0 0.0 1.0 0.00 0.00 0.00 66 1019.6
20260904224018 63 0 0.0 1.0 0.00 0.00 0.00 66 1019.6
20260904223516 63 0 0.0 1.0 0.00 0.00 0.00 65 1019.7
20260904223041 63 0 0.0 1.0 0.00 0.00 0.00 66 1019.8
20260904222520 63 0 0.0 1.0 0.00 0.00 0.00 67 1019.9
20260904222019 63 0 0.0 0.0 0.00 0.00 0.00 65 1019.9
20260904221536 63 0 0.0 0.0 0.00 0.00 0.00 66 1019.8
20260904221017 63 0 0.0 1.0 0.00 0.00 0.00 65 1019.9
20260904220518 63 0 0.0 1.0 0.00 0.00 0.00 69 1019.7
20260904220035 62 0 0.0 0.0 0.00 0.00 0.00 71 1019.8
20260904215517 62 0 0.0 0.0 0.00 0.00 0.00 71 1019.8
20260904215016 62 0 0.0 0.0 0.00 0.00 0.00 73 1019.9
20260904214536 61 0 0.0 0.0 0.00 0.00 0.00 72 1020.0
20260904214016 61 0 0.0 0.0 0.00 0.00 0.00 71 1020.0
20260904213526 61 0 0.0 0.0 0.00 0.00 0.00 72 1020.2
20260904213036 61 0 0.0 0.0 0.00 0.00 0.00 72 1020.1
20260904212520 61 0 0.0 0.0 0.00 0.00 0.00 72 1020.2
20260904212017 61 0 0.0 0.0 0.00 0.00 0.00 66 1020.2
20260904211537 61 0 0.0 0.0 0.00 0.00 0.00 68 1020.4
20260904211022 61 0 0.0 0.0 0.00 0.00 0.00 71 1020.4
20260904210518 61 0 0.0 0.0 0.00 0.00 0.00 69 1020.3
20260904210044 61 0 0.0 0.0 0.00 0.00 0.00 71 1020.4
20260904205518 61 0 0.0 0.0 0.00 0.00 0.00 70 1020.4
20260904205020 61 0 0.0 0.0 0.00 0.00 0.00 68 1020.5
20260904204536 61 0 0.0 0.0 0.00 0.00 0.00 69 1020.6
20260904204020 61 0 0.0 0.0 0.00 0.00 0.00 69 1020.6
20260904203518 61 0 0.0 0.0 0.00 0.00 0.00 72 1020.7
20260904203038 61 0 0.0 2.0 0.00 0.00 0.00 68 1020.6
20260904202518 61 0 0.0 2.0 0.00 0.00 0.00 68 1020.6
20260904202018 61 0 0.0 2.0 0.00 0.00 0.00 68 1020.7
20260904201536 61 0 0.0 4.0 0.00 0.00 0.00 67 1020.6
20260904201021 61 241 1.0 4.0 0.00 0.00 0.00 69 1020.5
20260904200520 61 190 0.0 1.0 0.00 0.00 0.00 69 1020.4
20260904200039 60 0 0.0 0.0 0.00 0.00 0.00 75 1020.2
20260904195520 60 0 0.0 0.0 0.00 0.00 0.00 71 1020.1
20260904195017 59 0 0.0 0.0 0.00 0.00 0.00 73 1020.2
20260904194534 59 0 0.0 0.0 0.00 0.00 0.00 77 1020.1
20260904194020 58 0 0.0 0.0 0.00 0.00 0.00 80 1020.2
20260904193519 58 0 0.0 0.0 0.00 0.00 0.00 83 1020.2
20260904193035 58 0 0.0 0.0 0.00 0.00 0.00 81 1020.3
20260904192516 57 0 0.0 0.0 0.00 0.00 0.00 79 1020.5
20260904192016 57 0 0.0 0.0 0.00 0.00 0.00 80 1020.5
20260904191533 57 0 0.0 0.0 0.00 0.00 0.00 80 1020.4
20260904191021 57 0 0.0 0.0 0.00 0.00 0.00 84 1020.3
20260904190518 57 0 0.0 0.0 0.00 0.00 0.00 85 1020.3
20260904190036 56 0 0.0 0.0 0.00 0.00 0.00 81 1020.4
20260904185519 56 0 0.0 0.0 0.00 0.00 0.00 84 1020.5
20260904185020 56 0 0.0 0.0 0.00 0.00 0.00 84 1020.2
20260904184532 56 0 0.0 0.0 0.00 0.00 0.00 81 1020.2
20260904184018 56 0 0.0 0.0 0.00 0.00 0.00 81 1020.3
20260904183516 55 0 0.0 0.0 0.00 0.00 0.00 82 1020.3
20260904183036 55 0 0.0 0.0 0.00 0.00 0.00 83 1020.2
20260904182519 55 0 0.0 0.0 0.00 0.00 0.00 84 1020.2
20260904182024 55 0 0.0 0.0 0.00 0.00 0.00 83 1020.3
20260904181534 55 0 0.0 0.0 0.00 0.00 0.00 83 1020.4
20260904181018 55 0 0.0 0.0 0.00 0.00 0.00 84 1020.3
20260904180516 55 0 0.0 0.0 0.00 0.00 0.00 84 1020.3
20260904180036 55 0 0.0 0.0 0.00 0.00 0.00 85 1020.5
20260904175522 55 0 0.0 0.0 0.00 0.00 0.00 86 1020.6
20260904175019 54 0 0.0 0.0 0.00 0.00 0.00 87 1020.5
20260904174536 54 0 0.0 0.0 0.00 0.00 0.00 88 1020.4
20260904174019 54 0 0.0 0.0 0.00 0.00 0.00 90 1020.5
20260904173516 53 0 0.0 0.0 0.00 0.00 0.00 89 1020.5
20260904173047 53 0 0.0 0.0 0.00 0.00 0.00 91 1020.6
20260904172521 53 0 0.0 0.0 0.00 0.00 0.00 91 1020.4
20260904172019 52 0 0.0 0.0 0.00 0.00 0.00 90 1020.5
20260904171531 52 0 0.0 0.0 0.00 0.00 0.00 91 1020.6
20260904171019 52 0 0.0 0.0 0.00 0.00 0.00 93 1020.6
20260904170516 51 0 0.0 0.0 0.00 0.00 0.00 93 1020.4
20260904170035 51 0 0.0 0.0 0.00 0.00 0.00 93 1020.5
20260904165522 51 0 0.0 0.0 0.00 0.00 0.00 94 1020.3
20260904165016 51 0 0.0 0.0 0.00 0.00 0.00 94 1020.4
20260904164534 50 0 0.0 0.0 0.00 0.00 0.00 94 1020.6
20260904164018 50 0 0.0 0.0 0.00 0.00 0.00 95 1020.5
20260904163519 50 0 0.0 0.0 0.00 0.00 0.00 95 1020.3
20260904163034 50 0 0.0 0.0 0.00 0.00 0.00 95 1020.4
20260904162523 49 0 0.0 0.0 0.00 0.00 0.00 95 1020.3
20260904162017 49 0 0.0 0.0 0.00 0.00 0.00 95 1020.5
20260904161532 49 0 0.0 0.0 0.00 0.00 0.00 95 1020.4
20260904161018 49 0 0.0 0.0 0.00 0.00 0.00 95 1020.5
20260904160519 49 0 0.0 0.0 0.00 0.00 0.00 95 1020.5
20260904160035 49 0 0.0 0.0 0.00 0.00 0.00 95 1020.5
20260904155518 49 0 0.0 0.0 0.00 0.00 0.00 95 1020.6
20260904155015 48 0 0.0 0.0 0.00 0.00 0.00 95 1020.7
20260904154536 48 0 0.0 0.0 0.00 0.00 0.00 95 1020.8
20260904154015 48 0 0.0 0.0 0.00 0.00 0.00 95 1020.8
20260904153520 48 0 0.0 0.0 0.00 0.00 0.00 95 1020.9
20260904153034 48 0 0.0 0.0 0.00 0.00 0.00 95 1020.9
20260904152518 48 0 0.0 0.0 0.00 0.00 0.00 95 1020.9
20260904152019 48 0 0.0 0.0 0.00 0.00 0.00 95 1020.7
20260904151541 48 0 0.0 0.0 0.00 0.00 0.00 95 1020.8
20260904151018 48 0 0.0 0.0 0.00 0.00 0.00 95 1020.7
20260904150518 48 0 0.0 0.0 0.00 0.00 0.00 95 1020.7
20260904150037 47 0 0.0 0.0 0.00 0.00 0.00 95 1020.8
20260904145518 47 0 0.0 0.0 0.00 0.00 0.00 95 1020.8
20260904145016 47 0 0.0 0.0 0.00 0.00 0.00 95 1020.8
20260904144536 47 0 0.0 0.0 0.00 0.00 0.00 95 1020.9
20260904144023 47 0 0.0 0.0 0.00 0.00 0.00 95 1020.8
20260904143520 47 0 0.0 0.0 0.00 0.00 0.00 95 1020.7
20260904143048 47 0 0.0 0.0 0.00 0.00 0.00 95 1020.8
20260904142518 47 0 0.0 0.0 0.00 0.00 0.00 95 1020.8
20260904142018 47 0 0.0 0.0 0.00 0.00 0.00 94 1020.7
20260904141534 47 0 0.0 0.0 0.00 0.00 0.00 94 1020.6
20260904141015 47 0 0.0 0.0 0.00 0.00 0.00 94 1020.7
20260904140520 47 0 0.0 0.0 0.00 0.00 0.00 94 1020.6
20260904140038 47 0 0.0 0.0 0.00 0.00 0.00 94 1020.6
20260904135520 47 0 0.0 0.0 0.00 0.00 0.00 94 1020.6
20260904135019 47 0 0.0 0.0 0.00 0.00 0.00 94 1020.5
20260904134536 47 0 0.0 0.0 0.00 0.00 0.00 94 1020.6
20260904134018 48 0 0.0 0.0 0.00 0.00 0.00 94 1020.5
20260904133518 48 0 0.0 0.0 0.00 0.00 0.00 94 1020.5
20260904133035 48 0 0.0 0.0 0.00 0.00 0.00 94 1020.4
20260904132519 48 0 0.0 0.0 0.00 0.00 0.00 94 1020.2
20260904132017 48 0 0.0 0.0 0.00 0.00 0.00 94 1020.2
20260904131533 49 0 0.0 0.0 0.00 0.00 0.00 94 1020.5
20260904131017 49 0 0.0 0.0 0.00 0.00 0.00 94 1020.5
20260904130516 49 0 0.0 0.0 0.00 0.00 0.00 94 1020.5
20260904130034 49 0 0.0 0.0 0.00 0.00 0.00 94 1020.6
20260904125521 49 0 0.0 0.0 0.00 0.00 0.00 94 1020.6
20260904125017 49 0 0.0 0.0 0.00 0.00 0.00 94 1020.6
20260904124534 50 0 0.0 0.0 0.00 0.00 0.00 94 1020.6
20260904124018 50 0 0.0 0.0 0.00 0.00 0.00 94 1020.6
20260904123518 50 0 0.0 0.0 0.00 0.00 0.00 94 1020.6
20260904123034 50 0 0.0 0.0 0.00 0.00 0.00 94 1020.5
20260904122518 50 0 0.0 0.0 0.00 0.00 0.00 94 1020.6
20260904122022 50 0 0.0 0.0 0.00 0.00 0.00 94 1020.7
20260904121535 50 0 0.0 0.0 0.00 0.00 0.00 94 1020.6
20260904121018 50 0 0.0 0.0 0.00 0.00 0.00 94 1020.5
20260904120515 50 0 0.0 0.0 0.00 0.00 0.00 94 1020.6
20260904120033 50 0 0.0 0.0 0.00 0.00 0.00 94 1020.5
20260904115520 50 0 0.0 0.0 0.00 0.00 0.00 94 1020.5
20260904115017 50 0 0.0 0.0 0.00 0.00 0.00 94 1020.6
20260904114534 50 0 0.0 0.0 0.00 0.00 0.00 94 1020.7
20260904114018 50 0 0.0 0.0 0.00 0.00 0.00 94 1020.7
20260904113517 50 0 0.0 0.0 0.00 0.00 0.00 94 1020.7
20260904113034 50 0 0.0 0.0 0.00 0.00 0.00 94 1020.8
20260904112515 50 0 0.0 0.0 0.00 0.00 0.00 94 1020.7
20260904112015 51 0 0.0 0.0 0.00 0.00 0.00 94 1020.6
20260904111533 51 0 0.0 0.0 0.00 0.00 0.00 94 1020.5
20260904111017 51 0 0.0 0.0 0.00 0.00 0.00 94 1020.6
20260904110517 51 0 0.0 0.0 0.00 0.00 0.00 94 1020.7
20260904110034 51 0 0.0 0.0 0.00 0.00 0.00 94 1020.6
20260904105517 51 0 0.0 0.0 0.00 0.00 0.00 94 1020.6
20260904105019 51 0 0.0 0.0 0.00 0.00 0.00 94 1020.7
20260904104532 51 0 0.0 0.0 0.00 0.00 0.00 94 1020.7
20260904104018 51 0 0.0 0.0 0.00 0.00 0.00 94 1020.7
20260904103518 51 0 0.0 0.0 0.00 0.00 0.00 94 1020.7
20260904103031 51 0 0.0 0.0 0.00 0.00 0.00 94 1020.6
20260904102518 51 0 0.0 0.0 0.00 0.00 0.00 94 1020.6
20260904102017 51 0 0.0 0.0 0.00 0.00 0.00 94 1020.7
20260904101534 51 0 0.0 0.0 0.00 0.00 0.00 94 1020.6
20260904101018 51 0 0.0 0.0 0.00 0.00 0.00 94 1020.6
20260904100524 51 0 0.0 0.0 0.00 0.00 0.00 94 1020.4
20260904100036 51 0 0.0 0.0 0.00 0.00 0.00 94 1020.5
20260904095519 51 0 0.0 0.0 0.00 0.00 0.00 94 1020.4
20260904095017 51 0 0.0 0.0 0.00 0.00 0.00 94 1020.5
20260904094535 51 0 0.0 0.0 0.00 0.00 0.00 94 1020.4
20260904094016 51 0 0.0 0.0 0.00 0.00 0.00 94 1020.3
20260904093518 51 0 0.0 0.0 0.00 0.00 0.00 94 1020.3
20260904093033 51 0 0.0 0.0 0.00 0.00 0.00 94 1020.2
20260904092520 51 0 0.0 0.0 0.00 0.00 0.00 94 1020.2
20260904092020 51 0 0.0 0.0 0.00 0.00 0.00 94 1020.3
20260904091548 51 0 0.0 0.0 0.00 0.00 0.00 94 1020.1
20260904091020 51 0 0.0 0.0 0.00 0.00 0.00 94 1020.1